This is the latest recevied weather packets stored in our database for station/object vk4zu-13. If no packets are shown the sender has not sent any weather packets the latest 10 day(s).
| Time | Temp. | Humidity | Pressure | Rain* | Wind** | Luminosity | Snow |
|---|---|---|---|---|---|---|---|
| 1777667634 | 20° C | 92% | 1021.8 hPa | 4.57 mm | - | 14 W/m² | - |
| 1777667565 | 20° C | 92% | 1021.9 hPa | 4.83 mm | - | 9 W/m² | - |
| 1777667496 | 20° C | 92% | 1022.1 hPa | 4.83 mm | - | 7 W/m² | - |
| 1777667425 | 20° C | 92% | 1022 hPa | 5.08 mm | - | 9 W/m² | - |
| 1777667361 | 20° C | 92% | 1021.9 hPa | 4.83 mm | - | 12 W/m² | - |
| 1777667295 | 20° C | 92% | 1021.9 hPa | 4.83 mm | - | 14 W/m² | - |
| 1777667233 | 20° C | 92% | 1022.1 hPa | 4.83 mm | - | 16 W/m² | - |
| 1777667174 | 20° C | 92% | 1022 hPa | 4.83 mm | - | 16 W/m² | - |
| 1777667107 | 20° C | 92% | 1022 hPa | 4.83 mm | - | 14 W/m² | - |
| 1777667045 | 20° C | 92% | 1022 hPa | 4.83 mm | - | 16 W/m² | - |
| 1777666985 | 20° C | 92% | 1022 hPa | 4.83 mm | - | 12 W/m² | - |
| 1777666915 | 20° C | 92% | 1022.2 hPa | 4.57 mm | - | 7 W/m² | - |
| 1777666847 | 20° C | 92% | 1022 hPa | 4.83 mm | - | 7 W/m² | - |
| 1777666756 | 20° C | 92% | 1022 hPa | 4.83 mm | - | 5 W/m² | - |
| 1777666695 | 20° C | 92% | 1022 hPa | 4.83 mm | - | 0 W/m² | - |
| 1777666632 | 20° C | 92% | 1022 hPa | 4.83 mm | - | 0 W/m² | - |
| 1777666555 | 20° C | 92% | 1021.8 hPa | 5.08 mm | - | 0 W/m² | - |
| 1777666509 | 20° C | 92% | 1021.9 hPa | 5.08 mm | - | 0 W/m² | - |
| 1777666488 | 20° C | 92% | 1021.8 hPa | 5.08 mm | - | 0 W/m² | - |
| 1777666366 | 20° C | 92% | 1021.8 hPa | 4.83 mm | - | 0 W/m² | - |
| 1777666300 | 20° C | 92% | 1021.9 hPa | 4.83 mm | - | 0 W/m² | - |
| 1777666232 | 20° C | 92% | 1021.9 hPa | 5.08 mm | - | 0 W/m² | - |
| 1777666164 | 20° C | 92% | 1021.9 hPa | 5.08 mm | - | 0 W/m² | - |
| 1777666096 | 20° C | 92% | 1021.8 hPa | 4.83 mm | - | 0 W/m² | - |
| 1777666026 | 20° C | 92% | 1021.7 hPa | 5.08 mm | - | 0 W/m² | - |
* Rain latest hour (hover to see other rain measurements)
** Current wind speed in m/s (hover to see current wind gust speed)